Tracking 20942 objects as of 14-Jul-2020
HD Live streaming from Space Station
objects crossing your sky now

COSMOS 2160

Track COSMOS 2160 now!
10-day predictions
COSMOS 2160 is classified as:


NORAD ID: 21731
Int'l Code: 1991-068D
Perigee: 1,405.3 km
Apogee: 1,416.7 km
Inclination: 82.6 °
Period: 113.9 minutes
Semi major axis: 7782 km
RCS: 1.112 m2 (large)
Launch date: September 28, 1991
Source: Commonwealth of Independent States (former USSR) (CIS)
Launch site: PLESETSK MISSILE AND SPACE COMPLEX (PKMTR)
aabbcc
Your satellite tracking list
Your tracking list is empty




NASA's NSSDC Master Catalog

Two Line Element Set (TLE):
1 21731U 91068D   20195.63758281 +.00000003 +00000-0 -42509-4 0  9993
2 21731 082.5856 249.9280 0007294 251.0477 263.8912 12.64634194328927
Source of the keplerian elements: AFSPC